| time (UTC) | temp F | wind direction | speed knots | gust knots | rain 1hr in | rain 24hr in | rain mn in | humidity % | barometer mb |
| 20260502160529 | 62 | 354 | 0.0 | 1.7 | 0.00 | 0.00 | 0.00 | 87 | 1020.6 |
| 20260502151533 | 63 | 185 | 0.9 | 1.7 | 0.00 | 0.00 | 0.00 | 83 | 1021.2 |
| 20260502150529 | 64 | 208 | 1.7 | 2.6 | 0.00 | 0.00 | 0.00 | 82 | 1021.4 |
| 20260502130528 | 65 | 47 | 0.9 | 2.6 | 0.00 | 0.00 | 0.00 | 78 | 1022.1 |
| 20260502123535 | 66 | 194 | 0.9 | 1.7 | 0.00 | 0.00 | 0.00 | 75 | 1022.4 |
| 20260502122521 | 66 | 43 | 1.7 | 4.3 | 0.00 | 0.00 | 0.00 | 75 | 1022.3 |
| 20260502121537 | 66 | 25 | 0.9 | 2.6 | 0.00 | 0.00 | 0.00 | 75 | 1022.5 |
| 20260502120519 | 66 | 247 | 0.0 | 1.7 | 0.00 | 0.00 | 0.00 | 75 | 1022.4 |
| 20260502115529 | 66 | 184 | 0.0 | 1.7 | 0.00 | 0.00 | 0.00 | 74 | 1022.4 |
| 20260502114517 | 66 | 53 | 0.0 | 1.7 | 0.00 | 0.00 | 0.00 | 75 | 1022.4 |
| 20260502113526 | 66 | 235 | 0.9 | 2.6 | 0.00 | 0.00 | 0.00 | 74 | 1022.4 |
| 20260502112534 | 67 | 163 | 0.9 | 1.7 | 0.00 | 0.00 | 0.00 | 73 | 1022.4 |
| 20260502111524 | 67 | 46 | 0.9 | 3.5 | 0.00 | 0.00 | 0.00 | 73 | 1022.4 |
| 20260502110531 | 67 | 54 | 1.7 | 5.2 | 0.00 | 0.00 | 0.00 | 73 | 1022.1 |
| 20260502105527 | 67 | 60 | 0.9 | 2.6 | 0.00 | 0.00 | 0.00 | 72 | 1022.1 |
| 20260502104531 | 67 | 12 | 0.9 | 2.6 | 0.00 | 0.00 | 0.00 | 71 | 1022.2 |
| 20260502103525 | 68 | 69 | 0.9 | 5.2 | 0.00 | 0.00 | 0.00 | 70 | 1022.1 |
| 20260502102527 | 68 | 59 | 0.9 | 1.7 | 0.00 | 0.00 | 0.00 | 69 | 1022.0 |
| 20260502100532 | 68 | 46 | 1.7 | 6.1 | 0.00 | 0.00 | 0.00 | 69 | 1021.9 |
| 20260502091527 | 69 | 29 | 3.5 | 9.6 | 0.00 | 0.00 | 0.00 | 67 | 1021.5 |
| 20260502090517 | 69 | 28 | 1.7 | 7.0 | 0.00 | 0.00 | 0.00 | 66 | 1021.5 |
| 20260502071535 | 70 | 245 | 0.0 | 1.7 | 0.00 | 0.00 | 0.00 | 68 | 1020.8 |
| 20260502070530 | 70 | 348 | 0.9 | 2.6 | 0.00 | 0.00 | 0.00 | 67 | 1020.7 |
| 20260502065532 | 70 | 75 | 0.9 | 1.7 | 0.00 | 0.00 | 0.00 | 67 | 1020.8 |
| 20260502064520 | 70 | 303 | 0.0 | 0.9 | 0.00 | 0.00 | 0.00 | 67 | 1020.7 |
| 20260502063529 | 70 | 105 | 0.9 | 1.7 | 0.00 | 0.00 | 0.00 | 66 | 1020.6 |
| 20260502062519 | 71 | 85 | 0.9 | 1.7 | 0.00 | 0.00 | 0.00 | 66 | 1020.7 |
| 20260502061528 | 71 | 198 | 0.0 | 1.7 | 0.00 | 0.00 | 0.00 | 65 | 1020.7 |
| 20260502060536 | 71 | 208 | 0.0 | 0.9 | 0.00 | 0.00 | 0.00 | 65 | 1020.8 |
| 20260502055524 | 71 | 144 | 0.9 | 2.6 | 0.00 | 0.00 | 0.00 | 64 | 1020.8 |
| 20260502054533 | 71 | 132 | 0.9 | 2.6 | 0.00 | 0.00 | 0.00 | 63 | 1020.8 |
| 20260502053521 | 71 | 85 | 0.9 | 2.6 | 0.00 | 0.00 | 0.00 | 63 | 1020.8 |
| 20260502052530 | 71 | 333 | 0.0 | 0.9 | 0.00 | 0.00 | 0.00 | 63 | 1020.9 |
| 20260502051519 | 71 | 199 | 0.9 | 1.7 | 0.00 | 0.00 | 0.00 | 63 | 1021.0 |
| 20260502050543 | 71 | 215 | 0.9 | 1.7 | 0.00 | 0.00 | 0.00 | 62 | 1021.1 |
| 20260502045518 | 71 | 121 | 0.9 | 1.7 | 0.00 | 0.00 | 0.00 | 63 | 1021.1 |
| 20260502044527 | 71 | 178 | 0.9 | 1.7 | 0.00 | 0.00 | 0.00 | 63 | 1021.2 |
| 20260502043537 | 71 | 215 | 1.7 | 3.5 | 0.00 | 0.00 | 0.00 | 63 | 1021.3 |
| 20260502042525 | 71 | 204 | 0.9 | 2.6 | 0.00 | 0.00 | 0.00 | 62 | 1021.5 |
| 20260502041534 | 71 | 195 | 1.7 | 4.3 | 0.00 | 0.00 | 0.00 | 64 | 1021.7 |
| 20260502040522 | 70 | 196 | 2.6 | 4.3 | 0.00 | 0.00 | 0.00 | 63 | 1021.7 |
| 20260502035531 | 70 | 252 | 1.7 | 3.5 | 0.00 | 0.00 | 0.00 | 63 | 1021.7 |
| 20260502034519 | 70 | 222 | 1.7 | 3.5 | 0.00 | 0.00 | 0.00 | 63 | 1021.8 |
| 20260502033529 | 69 | 230 | 2.6 | 4.3 | 0.00 | 0.00 | 0.00 | 65 | 1022.0 |
| 20260502032517 | 70 | 258 | 1.7 | 3.5 | 0.00 | 0.00 | 0.00 | 65 | 1022.4 |
| 20260502031528 | 70 | 215 | 2.6 | 3.5 | 0.00 | 0.00 | 0.00 | 65 | 1022.3 |
| 20260502030534 | 70 | 213 | 2.6 | 5.2 | 0.00 | 0.00 | 0.00 | 64 | 1022.5 |
| 20260502025529 | 70 | 296 | 1.7 | 4.3 | 0.00 | 0.00 | 0.00 | 63 | 1022.6 |
| 20260502024532 | 70 | 280 | 2.6 | 6.1 | 0.00 | 0.00 | 0.00 | 63 | 1022.8 |
| 20260502023520 | 70 | 306 | 2.6 | 5.2 | 0.00 | 0.00 | 0.00 | 63 | 1023.0 |
| 20260502022529 | 69 | 357 | 2.6 | 4.3 | 0.00 | 0.00 | 0.00 | 65 | 1023.3 |
| 20260502021525 | 67 | 247 | 1.7 | 3.5 | 0.00 | 0.00 | 0.00 | 67 | 1023.4 |
| 20260502020528 | 67 | 295 | 1.7 | 3.5 | 0.00 | 0.00 | 0.00 | 67 | 1023.7 |
| 20260502015535 | 66 | 315 | 1.7 | 5.2 | 0.00 | 0.00 | 0.00 | 68 | 1023.9 |
| 20260502014532 | 66 | 99 | 0.9 | 3.5 | 0.00 | 0.00 | 0.00 | 69 | 1024.1 |
| 20260502013535 | 66 | 187 | 1.7 | 4.3 | 0.00 | 0.00 | 0.00 | 70 | 1024.2 |
| 20260502012523 | 65 | 230 | 0.9 | 2.6 | 0.00 | 0.00 | 0.00 | 70 | 1024.5 |
| 20260502011532 | 64 | 161 | 1.7 | 4.3 | 0.00 | 0.00 | 0.00 | 71 | 1024.7 |
| 20260502010526 | 64 | 308 | 2.6 | 6.1 | 0.00 | 0.00 | 0.00 | 71 | 1024.9 |
| 20260502005527 | 64 | 209 | 1.7 | 4.3 | 0.00 | 0.00 | 0.00 | 73 | 1024.9 |
| 20260502004537 | 63 | 188 | 2.6 | 5.2 | 0.00 | 0.00 | 0.00 | 73 | 1024.9 |
| 20260502003526 | 63 | 194 | 1.7 | 4.3 | 0.00 | 0.00 | 0.00 | 76 | 1025.0 |
| 20260502002535 | 62 | 214 | 1.7 | 4.3 | 0.00 | 0.00 | 0.00 | 79 | 1025.1 |
| 20260502001524 | 62 | 200 | 1.7 | 4.3 | 0.00 | 0.00 | 0.00 | 81 | 1025.3 |
| 20260502000534 | 62 | 190 | 1.7 | 4.3 | 0.00 | 0.00 | 0.00 | 82 | 1025.3 |
| 20260501235521 | 60 | 157 | 2.6 | 3.5 | 0.00 | 0.00 | 0.00 | 85 | 1025.3 |
| 20260501234607 | 59 | 159 | 2.6 | 5.2 | 0.00 | 0.00 | 0.00 | 89 | 1025.3 |
| 20260501233519 | 58 | 185 | 2.6 | 5.2 | 0.00 | 0.00 | 0.00 | 91 | 1025.4 |
| 20260501232527 | 57 | 203 | 1.7 | 3.5 | 0.00 | 0.00 | 0.00 | 92 | 1025.6 |
| 20260501231537 | 57 | 196 | 1.7 | 2.6 | 0.00 | 0.00 | 0.00 | 93 | 1025.6 |
| 20260501230524 | 56 | 103 | 0.9 | 1.7 | 0.00 | 0.00 | 0.00 | 96 | 1025.6 |
| 20260501225533 | 55 | 113 | 0.9 | 2.6 | 0.00 | 0.00 | 0.00 | 97 | 1025.8 |
| 20260501224529 | 54 | 64 | 0.9 | 1.7 | 0.00 | 0.00 | 0.00 | 97 | 1025.6 |
| 20260501223532 | 53 | 55 | 0.0 | 1.7 | 0.00 | 0.00 | 0.00 | 97 | 1025.6 |
| 20260501222520 | 53 | 178 | 0.9 | 1.7 | 0.00 | 0.00 | 0.00 | 98 | 1025.5 |
| 20260501221530 | 53 | 146 | 0.0 | 1.7 | 0.00 | 0.00 | 0.00 | 97 | 1025.4 |
| 20260501220520 | 52 | 93 | 1.7 | 2.6 | 0.00 | 0.00 | 0.00 | 98 | 1025.5 |
| 20260501215528 | 52 | 353 | 0.9 | 2.6 | 0.00 | 0.00 | 0.00 | 98 | 1025.5 |
| 20260501214517 | 52 | 26 | 1.7 | 3.5 | 0.00 | 0.00 | 0.00 | 98 | 1025.5 |
| 20260501213527 | 52 | 87 | 0.0 | 1.7 | 0.00 | 0.00 | 0.00 | 98 | 1025.2 |
| 20260501212536 | 52 | 229 | 0.0 | 1.7 | 0.00 | 0.00 | 0.00 | 98 | 1025.1 |
| 20260501211523 | 52 | 342 | 1.7 | 2.6 | 0.00 | 0.00 | 0.00 | 97 | 1025.2 |
| 20260501210532 | 51 | 360 | 3.5 | 4.3 | 0.00 | 0.00 | 0.00 | 97 | 1025.2 |
| 20260501205520 | 51 | 1 | 1.7 | 3.5 | 0.00 | 0.00 | 0.00 | 97 | 1025.1 |
| 20260501204537 | 51 | 289 | 0.9 | 1.7 | 0.00 | 0.00 | 0.00 | 97 | 1025.0 |
| 20260501203518 | 51 | 356 | 0.0 | 1.7 | 0.00 | 0.00 | 0.00 | 97 | 1025.0 |
| 20260501202534 | 50 | 91 | 0.9 | 1.7 | 0.00 | 0.00 | 0.00 | 97 | 1024.9 |
| 20260501201536 | 51 | 122 | 1.7 | 2.6 | 0.00 | 0.00 | 0.00 | 97 | 1024.8 |
| 20260501200525 | 51 | 22 | 0.9 | 1.7 | 0.00 | 0.00 | 0.00 | 97 | 1024.8 |
| 20260501195534 | 51 | 237 | 0.0 | 1.7 | 0.00 | 0.00 | 0.00 | 97 | 1024.7 |
| 20260501194522 | 51 | 276 | 0.0 | 1.7 | 0.00 | 0.00 | 0.00 | 97 | 1024.6 |
| 20260501193539 | 52 | 347 | 0.0 | 1.7 | 0.00 | 0.00 | 0.00 | 97 | 1024.7 |
| 20260501192528 | 52 | 148 | 0.9 | 2.6 | 0.00 | 0.00 | 0.00 | 97 | 1024.6 |
| 20260501191530 | 52 | 194 | 0.9 | 1.7 | 0.00 | 0.00 | 0.00 | 96 | 1024.6 |
| 20260501190519 | 52 | 85 | 0.0 | 1.7 | 0.00 | 0.00 | 0.00 | 97 | 1024.6 |
| 20260501185527 | 52 | 175 | 0.9 | 1.7 | 0.00 | 0.00 | 0.00 | 97 | 1024.8 |
| 20260501184517 | 52 | 265 | 0.9 | 2.6 | 0.00 | 0.00 | 0.00 | 97 | 1024.6 |
| 20260501183525 | 53 | 312 | 0.9 | 2.6 | 0.00 | 0.00 | 0.00 | 97 | 1024.6 |
| 20260501182534 | 53 | 334 | 0.9 | 2.6 | 0.00 | 0.00 | 0.00 | 96 | 1024.6 |
| 20260501181523 | 52 | 53 | 0.0 | 1.7 | 0.00 | 0.00 | 0.00 | 96 | 1024.7 |
| 20260501180533 | 52 | 7 | 0.9 | 1.7 | 0.00 | 0.00 | 0.00 | 96 | 1024.6 |
| 20260501175522 | 52 | 110 | 0.0 | 1.7 | 0.00 | 0.00 | 0.00 | 96 | 1024.6 |
| 20260501174545 | 52 | 90 | 0.9 | 1.7 | 0.00 | 0.00 | 0.00 | 96 | 1024.6 |
| 20260501173519 | 52 | 193 | 0.9 | 1.7 | 0.00 | 0.00 | 0.00 | 96 | 1024.7 |
| 20260501171537 | 52 | 38 | 0.9 | 2.6 | 0.00 | 0.00 | 0.00 | 95 | 1024.7 |
| 20260501170525 | 52 | 92 | 0.0 | 1.7 | 0.00 | 0.00 | 0.00 | 95 | 1024.8 |
| 20260501165534 | 52 | 263 | 0.0 | 1.7 | 0.00 | 0.00 | 0.00 | 94 | 1024.9 |
| 20260501164523 | 52 | 13 | 0.9 | 2.6 | 0.00 | 0.00 | 0.00 | 94 | 1024.9 |
| 20260501163532 | 52 | 174 | 0.0 | 1.7 | 0.00 | 0.00 | 0.00 | 94 | 1025.0 |
| 20260501162519 | 52 | 128 | 0.0 | 0.9 | 0.00 | 0.00 | 0.00 | 93 | 1025.2 |
| 20260501161530 | 52 | 191 | 1.7 | 2.6 | 0.00 | 0.00 | 0.00 | 93 | 1025.4 |